Regional Weather Roundup
Issued by NWS Grand Forks, ND

Home | Current Version | Previous Version | Graphics & Text | Print | Product List | Glossary On
Versions: 1 2 3 4 5 6 7 8 9 10 11 12 13 14 15 16 17 18 19 20 21 22 23 24 25 26 27 28 29 30 31 32 33 34 35 36 37 38 39 40 41 42 43 44 45 46 47 48 49 50
000
ASUS43 KFGF 021331
RWRFGF
PRAIRIE TO PINES  WEATHER ROUNDUP
NATIONAL WEATHER SERVICE EASTERN NORTH DAKOTA/GRAND FORKS ND
800 AM CDT THU JUL 02 2015

 **SATELLITE DATA USED TO AUGMENT SKY COVER AT AUTOMATED STATIONS**
 *****  WEATHER ACROSS EASTERN NORTH DAKOTA  *****

CITY           SKY/WX    TMP DP  RH WIND       PRES   REMARKS
GRAND FORKS    MOSUNNY   60  56  86 S9        29.95F
GRAND FRKS AFB SUNNY     62  58  88 S8        29.96S
GRAND FRKS NWS   N/A     61 N/A N/A S5          N/A
DEVILS LAKE    CLOUDY    68  61  77 SW5       29.94S
FARGO          SUNNY     61  54  77 S8        29.99R
WAHPETON ARPT  NOT AVBL
$$

 ***** WEATHER ACROSS CENTRAL AND WESTERN NORTH DAKOTA  *****

CITY           SKY/WX    TMP DP  RH WIND       PRES   REMARKS
BISMARCK       MOSUNNY   65  63  93 N3        29.98R FOG
MINOT          MOSUNNY   64  60  87 W6        29.97R FOG
JAMESTOWN      CLOUDY    64  60  87 S6        29.96S
MINOT AFB      MOSUNNY   66  66 100 W6        29.96S FOG
GARRISON         N/A     62  61  96 NW8       29.98S
WILLISTON      MOSUNNY   59  54  83 CALM      30.03R
DICKINSON      SUNNY     61  58  90 W7        30.02S FOG
HETTINGER      MOSUNNY   62  59  90 NW10      30.05R FOG
$$

 *****  OTHER AIRPORT OBSERVATIONS IN OUR AREA  *****

CITY           SKY/WX    TMP DP  RH WIND       PRES   REMARKS
WALHALLA       FAIR      66  66 100 MISG      29.93S
GRAFTON AIRPOR FAIR      61  61 100 S8        29.95F
VALLEY CITY AR CLOUDY    63  63 100 S7        29.98S
CANDO          FAIR      64  63  94 NW5       29.96R
CAVALIER APRT  FAIR      64  61  88 S7        29.93F
GWINNER        PTSUNNY   66  59  77 SE7       29.99R
ROLLA          FAIR      66  66 100 NW5       29.98R
 ***** THE ABOVE OBSERVATIONS ARE NON NWS ARE NOT QUALITY
       CONTROLLED AND MAY MIS-REPORT RAIN FOR SNOW...
$$

  *****  WEATHER ACROSS NORTHERN MINNESOTA  *****

CITY           SKY/WX    TMP DP  RH WIND       PRES   REMARKS
FLAG ISLAND    SUNNY     64  57  77 SW12      29.94S
WARROAD        SUNNY     63  57  82 SW7       29.98R
ROSEAU         MOSUNNY   63  57  82 SW8       29.97R
HALLOCK        SUNNY     61  57  88 S8        29.94F
THF RVR FALLS  SUNNY     61  55  82 S7        29.99S
BAUDETTE       SUNNY     64  56  75 SW3       29.97S
WASKISH        SUNNY     66  59  77 SW8       30.00R
CROOKSTON      SUNNY     63  55  77 S9        29.99S
$$
  *****  WEATHER ACROSS CENTRAL AND WEST MINNESOTA  *****

CITY           SKY/WX    TMP DP  RH WIND       PRES   REMARKS
FOSSTON        SUNNY     61  55  82 CALM      30.02R
BEMIDJI        SUNNY     62  57  84 SW6       30.02R
PARK RAPIDS    CLOUDY    63  57  81 CALM      30.03R
ELBOW LAKE     FAIR      60  54  80 S10       30.03R
WADENA           N/A     61  55  82 S6        30.03S
DETROIT LAKES  SUNNY     63  54  72 S6        30.04R
MOORHEAD       SUNNY     61  54  77 S9        30.00S
FERGUS FALLS   SUNNY     63  54  72 S8        30.02S
MORRIS MN      SUNNY     61  55  82 SE6       30.02S
STAPLES        PTSUNNY   61  54  77 CALM      30.04R
$$
  *****  WEATHER ELSEWHERE ACROSS MINNESOTA  *****

CITY           SKY/WX    TMP DP  RH WIND       PRES   REMARKS
DULUTH         MOSUNNY   64  55  72 W7        30.03F
INTRNTL FALLS  SUNNY     61  58  90 W5        29.98F
ELY            MOSUNNY   57  54  88 CALM      30.01F
CLOQUET        SUNNY     61  55  82 CALM      30.04S
WHEATON        SUNNY     57  54  88 SE7       30.03S
BRAINERD       MOSUNNY   63  56  78 S3        30.04R
HIBBING        CLOUDY    57  56  96 CALM      30.02F
ALEXANDRIA     MOSUNNY   61  54  77 S6        30.05R
SAINT CLOUD    SUNNY     60  56  86 CALM      30.04R
MINNEAPOLIS    SUNNY     63  53  70 CALM      30.04S
$$

  *****  WEATHER ACROSS SOUTH DAKOTA  *****

CITY           SKY/WX    TMP DP  RH WIND       PRES   REMARKS
SIOUX FALLS    CLOUDY    60  53  77 E7        30.00S
BROOKINGS      CLOUDY    57  54  88 SE7       30.01F
WATERTOWN      PTSUNNY   61  55  81 SE9       30.00S
HURON          CLOUDY    60  57  89 E9        29.96R
SISSETON         N/A     58  56  93 S7        29.99S
ABERDEEN       LGT RAIN  62  58  86 S7        29.97S FOG
MITCHELL       LGT RAIN  60  58  92 SE9       29.96F
PIERRE         LGT RAIN  61  60  97 SE8       29.96R
MOBRIDGE       LGT RAIN  65  64  97 CALM      29.97R
RAPID CITY     SUNNY     65  62  90 N14       30.06R
$$

  *****  SOME WEATHER IN NEARBY STATES *****

CITY           SKY/WX    TMP DP  RH WIND       PRES   REMARKS
GLASGOW MT     SUNNY     59  55  87 W7        30.08R
GREAT FALLS MT SUNNY     62  52  69 W5        30.21R
CHEYENNE WY    PTSUNNY   56  54  93 W12       30.26F
SCOTTSBLUFF NE PTSUNNY   62  62 100 NW12      30.14R
OMAHA NE       CLOUDY    64  59  83 E5        29.95F
DES MOINES IA  CLOUDY    61  54  77 E7        29.99R
DAVENPORT IA   SUNNY     58  49  72 E13       30.01R
CHICAGO IL     CLOUDY    57  53  86 NE8       30.01R
EAU CLAIRE WI  SUNNY     56  52  86 E7        30.04F
LA CROSSE WI   SUNNY     55  52  89 E5        30.04F
$$

  *****  SOME NATIONAL WEATHER *****

CITY           SKY/WX    TMP DP  RH WIND       PRES   REMARKS
LA GUARDIA NY  PTSUNNY   72  58  61 NW5       29.90R
RALEIGH NC     CLOUDY    76  71  85 SW7       29.94S FOG
ATLANTA GA     MOSUNNY   73  66  78 SW12      30.04S
NEW ORLEANS LA CLOUDY    79  73  82 S7        30.08S
OKLAHOMA CITY  PTSUNNY   77  69  76 S15       29.90S
ALBUQUERQUE NM PTSUNNY   73  54  51 N10       30.16R
SALT LAKE CITY MOCLDY    77  51  40 S7        30.04R
LOS ANGELES CA CLOUDY    66  62  87 W8        29.97R
BOISE ID       CLEAR     71  43  36 SE6       30.00R
SEATTLE WA     PTCLDY    64  55  72 NW5       30.02R
$$

*** WEATHER ACROSS MANITOBA...SASKATCHEWAN AND ONTARIO ***
                ***ONTARIO***

CITY           SKY/WX    TMP DP  RH WIND       PRES   REMARKS
GERALDTON      MOSUNNY   61  52  72 VRB2      29.99S
THUNDER BAY    CLOUDY    57  54  88 W2        30.00S
SIOUX LOOKOUT  CLOUDY    61  59  94 S3        29.94S THUNDER
TORONTO        MOSUNNY   63  52  67 N7        29.98R
BIG TROUT LK   SUNNY     61  52  72 SE6       29.87F
PICKLE LAKE    MOSUNNY   63  59  88 S6        29.92S
DRYDEN         PTSUNNY   63  57  82 SW5       29.95S
KENORA         PTSUNNY   64  61  88 SW7       29.95F
$$
                *** MANITOBA***

CITY           SKY/WX    TMP DP  RH WIND       PRES   REMARKS
BRANDON        FOG       57  57 100 SW5       29.94S VSB 3/4
DAUPHIN        PTSUNNY   66  63  88 W6        29.91R FOG
ISLAND LAKE    MOSUNNY   66  59  77 SW3       29.83F
PILOT MOUND      N/A    N/A N/A N/A NW1         N/A
THE PAS        CLOUDY    64  61  88 SW6       29.88F
THOMPSON       PTSUNNY   63  54  72 SW7       29.77F
WINNIPEG       MOSUNNY   63  59  88 SW5       29.93R
LYNN LAKE      MOSUNNY   63  57  82 NW12G17   29.80R
CHURCHILL      LGT RAIN  59  59 100 S5        29.66F FOG
GILLAM         DRIZZLE   63  52  67 S9        29.74F
$$
                ***SASKATCHEWAN***

CITY           SKY/WX    TMP DP  RH WIND       PRES   REMARKS
ESTEVAN        CLOUDY    61  61 100 W3        30.01R FOG
KINDERSLEY     MOSUNNY   59  57  94 NW5       30.09S SMOKE
LLOYDMINSTER   SUNNY     61  59  94 W6        30.07S
PRINCE ALBERT    N/A     63  61  94 W7        29.99R SMOKE
REGINA         PTSUNNY   61  59  94 W3        30.03R
YORKTON        CLOUDY    63  61  94 NW6       29.96S FOG
N. BATTLEFORD  SUNNY     61  59  94 NW6       30.07S FOG
LA RONGE       SMOKE     64  61  88 W6        29.95R VSB 3/4
SASKATOON      PTSUNNY   61  59  94 NW7       30.05R FOG
SWIFT CURRENT  FOG       59 N/A N/A W6        30.09R VSB 1/8
$$
NOTE: THESE ARE AUTOMATED STATIONS WITH LIMITED QUALITY CONTROL
      "FAIR" INDICATES FEW OR NO CLOUDS BELOW 12,000 FEET WITH NO
      SIGNIFICANT WEATHER AND/OR OBSTRUCTIONS TO VISIBILITY.
      SKY/WX - SKY CONDITION AND SIGNIFICANT WEATHER.
      TMP - AIR TEMPERATURE.    DP   - DEWPOINT TEMPERATURE.
      RH  - RELATIVE HUMIDITY.  PRES - PRESSURE.
      HX  - HEAT INDEX.         WCI  - WIND CHILL INDEX.
$


USA.gov is the U.S. government's official web portal to all federal, state and local government web resources and services.